Temp
63 62 62 62 62 62 62 62 62 61 61 61 62 61 61 62 62 62 59 67 67 68 66 67 66 65 64 62 62 59 48 45 50 52 53 58 56 59 62 57 59 64 60 62 63
63 63 62 62 62 62 62 62 61 61 61 61 61 61 61 61 58 58 69 69 68 68 65 64 61 63 58 58 57 52 45 50 55 54 53 58 57 58 56 56 57 60 60 62 61
61 62 62 62 62 62 62 62 61 61 61 61 61 61 61 60 55 61 68 68 68 67 65 65 67 64 55 56 55 54 48 55 57 57 57 57 57 59 55 55 60 59 60 58 56
59 60 60 60 61 62 62 62 61 61 61 61 61 61 60 57 48 62 67 67 67 66 64 64 61 56 52 52 57 50 57 58 60 58 57 55 58 57 57 60 65 63 64 59 57
57 58 58 59 59 61 62 62 61 61 61 61 61 61 56 53 55 65 66 66 65 64 61 61 58 56 52 54 56 52 55 59 60 58 57 58 55 54 56 61 62 63 63 57 57
56 56 57 58 58 59 60 61 62 61 61 61 62 61 52 48 66 66 65 63 64 62 61 61 59 60 56 56 54 54 55 56 58 59 58 55 52 54 57 59 59 60 59 59 57
55 56 56 57 58 58 59 60 61 61 61 61 61 58 53 54 66 66 66 62 64 63 60 63 62 57 56 53 57 55 50 53 55 56 55 53 51 50 59 59 59 59 57 58 58
55 55 56 56 56 57 58 59 59 60 61 61 61 54 47 63 60 65 65 62 64 65 63 62 63 57 55 56 55 49 48 44 53 54 52 50 46 56 59 56 57 56 57 58 58
55 55 55 55 56 56 57 58 59 60 61 61 53 50 47 63 58 63 64 61 62 62 61 67 60 54 53 47 43 45 40 43 49 55 51 48 47 57 57 57 56 55 56 57 57
55 55 55 55 55 56 57 58 59 59 59 61 60 47 53 53 58 62 62 63 58 57 56 54 51 45 44 42 33 38 39 45 46 50 50 46 46 54 57 57 57 56 55 56 56
54 54 54 54 55 56 53 53 49 45 50 48 51 51 55 57 61 57 61 59 57 52 45 49 42 36 44 48 49 47 45 42 47 50 46 45 47 52 57 55 53 53 53 56 55
54 54 54 54 54 55 54 51 46 46 44 54 53 54 59 59 51 55 61 51 50 44 48 44 39 48 51 51 49 47 41 40 47 48 47 45 47 54 55 55 53 53 52 53 53
53 53 53 54 54 53 50 49 53 52 43 50 53 55 54 56 52 51 56 51 46 43 44 41 48 53 51 48 48 44 40 37 43 46 47 43 39 45 52 52 52 51 51 51 51
53 53 53 54 49 47 47 50 52 51 38 43 47 52 53 54 48 58 58 53 48 43 44 44 51 50 47 46 48 40 48 47 45 40 31 42 28 33 47 49 50 52 50 49 49
52 53 53 53 42 44 47 51 51 49 25 45 47 56 53 50 49 49 56 51 45 46 45 42 43 44 44 46 50 44 47 46 44 38 35 33 27 37 44 47 49 49 49 48 48
52 52 52 45 41 46 50 49 48 33 24 40 47 44 43 47 46 48 50 52 52 46 44 44 47 45 46 45 47 48 45 44 40 36 23 31 32 33 38 46 45 47 48 48 47
52 52 49 48 41 49 48 45 31 23 39 34 36 43 42 42 44 46 42 41 39 35 35 41 41 43 47 42 45 43 38 25 23 21 26 34 31 37 45 51 51 49 46 46 46
52 51 47 47 45 47 44 36 24 27 35 44 42 42 39 44 44 44 41 38 42 40 36 33 29 41 46 44 40 39 40 29 24 25 29 32 29 39 48 48 49 50 47 45 44
50 39 39 44 46 45 39 28 23 33 41 42 40 35 35 41 41 41 38 39 43 43 38 36 37 43 46 46 47 39 34 42 34 23 25 33 39 49 45 45 44 45 45 43 43
35 35 41 45 48 42 34 25 28 43 43 40 33 36 32 34 37 38 37 42 44 47 46 46 34 40 42 46 45 41 43 34 29 23 22 30 33 41 45 46 47 44 43 43 44
34 28 41 44 42 35 17 19 32 44 44 38 35 34 36 36 36 35 38 44 47 46 50 45 42 33 39 37 37 38 35 38 38 33 30 28 34 45 47 48 49 47 47 45 45
31 17 39 43 24 30 21 30 38 38 44 39 39 36 35 34 35 35 37 43 48 48 42 46 38 27 33 41 43 41 39 39 32 31 31 32 33 48 47 48 49 49 50 47 46
20 18 38 38 22 22 20 32 35 34 37 36 36 38 39 35 32 34 38 42 43 45 41 43 32 28 30 35 37 36 40 42 41 36 32 29 35 48 47 48 50 48 50 49 47
21 15 21 32 31 27 21 21 23 36 35 35 35 36 36 33 37 33 35 40 42 42 43 45 34 33 29 33 35 31 34 40 42 29 32 38 38 44 49 48 49 49 48 47 47
21 14 23 13 17 26 29 27 23 22 29 31 32 31 31 28 30 32 34 37 41 42 40 39 29 31 36 38 37 34 34 35 36 41 35 38 39 45 46 44 45 49 49 47 48
18 19 27 25 28 22 26 23 24 27 23 19 20 26 32 30 27 27 29 33 33 37 36 36 30 31 26 36 34 32 36 36 37 39 40 41 40 35 38 41 40 43 45 45 48
32 33 27 28 25 20 21 25 26 27 30 30 27 25 25 26 30 30 32 34 33 31 33 33 31 29 27 32 31 28 32 36 38 35 32 33 34 33 32 35 37 35 42 42 42
MSLP
1015.79 1015.98 1015.92 1015.83 1015.79 1015.79 1015.71 1015.61 1015.36 1015.03 1014.96 1014.75 1014.27 1013.96 1014.01 1013.74 1013.03 1013.01 1012.55 1011.63 1011.80 1011.94 1012.06 1012.24 1012.42 1012.31 1012.14 1012.13 1011.97 1012.16 1012.88 1012.42 1011.20 1010.66 1010.10 1009.73 1009.38 1009.11 1009.20 1009.46 1009.50 1009.46 1010.03 1010.42 1011.05
1015.43 1015.43 1015.60 1015.53 1015.57 1015.47 1015.66 1015.36 1015.02 1015.09 1014.74 1014.47 1014.27 1014.15 1014.08 1013.55 1013.16 1012.58 1011.46 1011.36 1011.59 1011.70 1012.23 1012.32 1012.25 1012.32 1012.24 1012.13 1012.26 1012.45 1012.66 1011.60 1010.56 1010.32 1010.39 1010.07 1009.73 1009.51 1009.76 1009.74 1009.63 1009.67 1010.28 1010.49 1010.91
1015.24 1015.19 1015.17 1015.26 1015.26 1015.27 1015.05 1015.08 1015.11 1014.92 1014.73 1014.39 1014.01 1013.80 1013.25 1013.19 1013.13 1011.63 1011.26 1011.48 1011.69 1012.05 1012.16 1012.28 1012.02 1012.15 1012.22 1012.02 1012.14 1012.17 1011.99 1011.10 1010.72 1010.49 1010.47 1010.31 1010.15 1009.91 1009.78 1009.73 1009.27 1009.30 1010.04 1010.93 1011.17
1015.35 1015.38 1015.38 1015.09 1014.98 1014.77 1014.79 1014.85 1014.78 1014.64 1014.46 1014.35 1014.06 1013.76 1013.22 1013.29 1013.00 1011.61 1011.45 1011.55 1011.63 1011.98 1012.17 1011.86 1011.91 1012.01 1011.90 1012.05 1011.77 1012.05 1011.27 1011.13 1010.70 1010.66 1010.60 1010.56 1010.57 1010.22 1010.00 1008.88 1008.59 1008.92 1009.21 1010.22 1011.12
1015.81 1015.61 1015.56 1015.37 1015.08 1014.82 1014.58 1014.48 1014.47 1014.47 1014.17 1013.99 1013.74 1013.79 1013.53 1013.17 1012.22 1011.72 1011.73 1011.75 1011.89 1012.00 1012.05 1011.82 1011.77 1011.67 1011.74 1011.78 1011.70 1011.87 1011.35 1010.85 1010.59 1010.73 1010.71 1010.68 1010.64 1010.76 1009.36 1008.81 1008.62 1008.74 1009.07 1009.55 1010.36
1016.06 1016.06 1015.67 1015.60 1015.38 1015.01 1014.77 1014.36 1014.17 1014.07 1014.17 1014.14 1013.96 1013.81 1013.79 1012.76 1011.23 1011.37 1011.52 1011.68 1011.73 1011.79 1011.81 1011.68 1011.51 1011.60 1011.72 1011.64 1011.63 1011.54 1011.25 1011.01 1010.70 1010.71 1010.70 1010.85 1010.68 1010.67 1008.49 1008.13 1008.38 1008.45 1008.84 1009.37 1009.85
1016.29 1016.42 1016.02 1015.68 1015.41 1015.16 1014.87 1014.56 1014.18 1013.87 1013.93 1014.05 1013.98 1013.99 1013.40 1011.82 1010.94 1011.09 1011.27 1011.38 1011.51 1011.66 1011.78 1011.37 1011.51 1011.68 1011.64 1011.62 1011.60 1011.42 1011.37 1010.87 1010.27 1010.40 1011.06 1011.03 1010.43 1009.75 1008.29 1008.33 1008.39 1008.24 1008.47 1009.06 1009.38
1016.47 1016.37 1016.11 1015.98 1015.61 1015.29 1014.82 1014.54 1014.29 1014.04 1013.88 1013.86 1013.93 1014.10 1012.99 1011.39 1011.17 1011.13 1011.27 1011.32 1011.37 1011.56 1011.76 1011.57 1011.45 1011.84 1012.06 1011.92 1011.80 1011.61 1011.54 1011.24 1010.24 1010.63 1011.28 1011.49 1010.07 1008.66 1007.99 1008.37 1008.30 1008.21 1008.35 1008.62 1008.91
1016.35 1016.20 1016.20 1016.06 1015.64 1015.35 1014.96 1014.39 1014.04 1013.93 1013.83 1013.99 1014.40 1014.02 1012.46 1011.36 1011.09 1011.00 1011.18 1011.58 1011.79 1011.78 1011.84 1011.79 1011.77 1012.16 1012.42 1012.41 1012.42 1011.88 1011.63 1011.36 1010.81 1010.78 1011.46 1011.63 1009.89 1008.61 1008.17 1008.12 1008.10 1008.07 1008.03 1008.27 1008.54
1016.52 1016.31 1016.07 1015.79 1015.58 1014.99 1014.55 1014.05 1013.84 1013.89 1014.14 1014.18 1014.03 1014.09 1012.27 1011.34 1011.22 1011.12 1011.24 1011.45 1011.86 1012.04 1012.39 1012.36 1012.31 1012.64 1012.79 1012.74 1012.18 1011.67 1011.69 1011.39 1011.35 1011.10 1011.51 1011.37 1009.87 1008.78 1008.22 1008.02 1007.42 1007.37 1007.44 1007.72 1008.19
1016.46 1016.29 1016.01 1015.65 1015.22 1014.91 1014.63 1013.86 1014.38 1014.34 1013.82 1012.93 1012.78 1012.15 1011.24 1011.38 1011.34 1011.42 1011.30 1011.67 1012.02 1012.25 1012.58 1012.72 1012.70 1012.48 1011.96 1011.55 1011.04 1011.16 1011.63 1011.65 1011.28 1011.17 1011.72 1011.03 1009.91 1008.46 1007.65 1007.13 1006.77 1006.58 1006.90 1007.06 1007.42
1016.32 1016.15 1015.88 1015.41 1014.88 1014.50 1014.39 1014.22 1014.45 1014.79 1013.70 1012.13 1011.87 1011.70 1011.32 1011.30 1011.63 1011.62 1011.55 1011.91 1012.20 1012.39 1012.40 1012.91 1012.16 1011.42 1011.40 1011.22 1011.44 1011.37 1011.73 1011.69 1011.48 1011.58 1011.81 1010.96 1009.87 1007.98 1007.03 1006.36 1006.02 1006.08 1006.51 1006.62 1007.27
1016.12 1015.94 1015.64 1015.17 1014.59 1014.20 1014.13 1014.41 1014.45 1014.35 1013.88 1011.85 1011.05 1010.66 1010.68 1011.05 1010.91 1011.09 1011.45 1011.59 1012.00 1012.26 1012.15 1012.29 1011.19 1010.32 1010.97 1010.88 1011.13 1011.43 1011.70 1011.87 1012.02 1012.02 1011.85 1011.52 1010.06 1008.50 1006.75 1006.11 1005.92 1006.11 1006.47 1006.80 1007.15
1016.10 1015.83 1015.45 1014.71 1014.46 1014.56 1014.37 1014.55 1014.30 1014.46 1013.65 1011.52 1010.50 1009.79 1010.07 1010.71 1010.75 1010.15 1010.70 1011.28 1011.66 1011.63 1012.05 1012.16 1010.92 1010.57 1010.81 1010.99 1011.12 1011.68 1011.23 1011.53 1012.18 1013.01 1013.17 1012.37 1012.04 1009.83 1007.26 1006.44 1006.23 1006.27 1006.78 1007.39 1007.93
1016.00 1015.79 1015.50 1015.19 1015.17 1014.78 1014.77 1014.27 1014.22 1014.34 1013.26 1010.33 1010.02 1009.84 1009.98 1010.52 1010.37 1010.78 1010.78 1010.88 1010.93 1010.93 1011.53 1011.21 1010.77 1010.67 1011.04 1011.04 1011.11 1011.44 1011.30 1011.90 1012.63 1013.54 1013.90 1013.41 1013.73 1009.38 1007.94 1006.61 1006.22 1006.39 1007.07 1007.71 1008.40
1015.87 1015.74 1015.54 1015.57 1015.48 1014.99 1014.61 1014.38 1014.29 1014.44 1012.04 1010.43 1010.13 1010.04 1010.48 1010.60 1010.80 1010.96 1010.78 1010.75 1010.75 1011.04 1011.13 1011.16 1010.90 1010.96 1011.03 1011.38 1011.32 1011.71 1012.13 1012.87 1013.58 1014.39 1014.75 1013.27 1012.92 1010.40 1008.29 1006.45 1006.28 1006.62 1007.34 1008.01 1008.59
1015.71 1015.57 1015.47 1015.41 1015.35 1014.89 1014.73 1014.45 1014.63 1013.41 1011.27 1010.85 1010.45 1010.31 1010.33 1010.49 1010.91 1010.91 1011.09 1011.13 1010.95 1011.43 1011.18 1011.41 1011.31 1011.37 1011.20 1011.79 1012.09 1012.10 1012.83 1014.28 1015.00 1015.43 1014.23 1013.12 1012.84 1009.31 1006.84 1005.90 1005.78 1006.37 1007.33 1008.14 1008.83
1015.53 1015.34 1015.24 1015.15 1015.09 1015.15 1014.95 1014.95 1014.18 1012.05 1011.41 1010.43 1010.28 1010.50 1010.56 1010.36 1010.78 1010.94 1011.16 1011.45 1011.08 1011.07 1010.92 1011.11 1011.75 1011.22 1011.07 1011.30 1011.68 1012.31 1012.60 1013.59 1014.09 1014.77 1013.96 1013.27 1011.32 1007.52 1005.51 1005.07 1005.27 1005.84 1006.90 1008.02 1008.89
1015.47 1015.47 1015.51 1015.08 1015.03 1015.27 1015.26 1014.79 1013.18 1012.23 1011.26 1010.82 1011.22 1011.11 1010.74 1010.42 1010.43 1010.87 1011.11 1010.94 1010.47 1010.57 1010.45 1010.40 1010.75 1010.75 1010.92 1011.04 1011.13 1012.12 1012.23 1012.34 1013.19 1014.39 1013.64 1011.56 1008.99 1006.32 1005.24 1005.40 1005.81 1006.49 1007.29 1008.22 1008.85
1015.97 1016.00 1015.67 1015.42 1015.04 1015.45 1015.40 1014.63 1013.37 1012.04 1011.46 1011.26 1011.16 1010.98 1010.99 1010.76 1010.63 1010.71 1010.71 1009.88 1009.81 1009.41 1009.62 1009.66 1010.52 1011.27 1011.47 1011.21 1011.14 1011.39 1011.73 1012.42 1013.01 1013.53 1012.48 1010.26 1008.77 1006.39 1004.99 1005.14 1005.72 1006.63 1007.11 1007.90 1008.54
1016.19 1016.36 1015.92 1015.41 1015.41 1015.88 1016.06 1015.20 1013.89 1012.52 1011.90 1012.11 1011.92 1011.83 1011.54 1011.15 1011.00 1010.83 1010.44 1009.63 1009.17 1008.96 1009.27 1009.88 1010.31 1012.17 1011.80 1011.30 1010.98 1011.65 1011.67 1011.66 1011.51 1011.57 1010.93 1010.01 1007.53 1005.34 1004.67 1004.59 1005.14 1005.74 1006.63 1007.51 1008.16
1016.64 1017.19 1016.10 1015.47 1016.35 1016.56 1016.58 1016.08 1014.94 1013.55 1012.60 1012.72 1012.72 1012.61 1012.35 1012.08 1011.75 1011.50 1010.96 1010.34 1009.71 1009.17 1009.72 1010.33 1011.75 1012.22 1011.74 1011.16 1010.99 1010.90 1010.94 1010.87 1010.91 1010.95 1010.30 1009.48 1007.27 1005.42 1005.08 1004.99 1005.13 1005.55 1006.16 1006.89 1007.72
1017.74 1018.11 1016.60 1016.25 1017.33 1017.74 1017.39 1016.41 1015.69 1014.79 1014.31 1013.90 1013.57 1013.46 1013.07 1013.01 1012.76 1012.39 1011.79 1011.50 1010.88 1010.14 1010.51 1011.18 1012.21 1012.39 1012.30 1012.06 1011.45 1011.14 1010.79 1010.43 1010.37 1010.41 1009.52 1009.22 1007.30 1005.84 1005.69 1005.59 1005.81 1006.05 1006.19 1006.52 1007.34
1018.41 1019.14 1018.65 1018.14 1018.31 1018.20 1018.00 1017.26 1016.46 1015.88 1015.46 1015.23 1014.85 1014.47 1014.04 1013.86 1013.69 1013.48 1012.86 1012.36 1012.18 1011.83 1011.69 1011.73 1012.04 1011.76 1011.30 1010.89 1010.82 1011.17 1010.52 1010.29 1010.44 1010.31 1009.14 1007.86 1007.76 1006.88 1007.16 1007.09 1006.76 1006.62 1006.55 1006.87 1007.40
1018.99 1020.43 1020.11 1019.85 1019.36 1018.93 1018.29 1017.94 1017.09 1017.02 1016.76 1016.43 1016.18 1016.14 1015.80 1015.36 1014.97 1014.55 1014.21 1013.53 1013.10 1013.02 1012.94 1012.75 1012.78 1012.28 1011.54 1011.34 1010.99 1010.95 1010.82 1010.64 1010.25 1009.57 1009.70 1009.51 1009.12 1009.08 1009.48 1009.64 1009.22 1008.55 1007.97 1007.64 1007.91
1019.83 1020.60 1020.17 1020.16 1019.71 1019.50 1019.19 1019.14 1018.47 1018.10 1017.91 1017.84 1017.74 1017.43 1016.76 1016.63 1017.16 1016.63 1016.19 1015.33 1014.82 1014.22 1013.71 1013.59 1013.19 1012.80 1012.06 1011.40 1011.54 1011.58 1011.26 1011.06 1010.95 1011.07 1010.72 1010.80 1010.69 1011.53 1011.68 1011.05 1010.79 1011.09 1010.59 1010.14 1009.42
1019.88 1020.04 1020.52 1020.91 1020.50 1020.27 1020.41 1019.82 1019.36 1019.00 1018.81 1018.45 1018.35 1018.05 1017.68 1017.88 1017.75 1017.56 1017.40 1016.76 1016.45 1015.80 1014.87 1014.39 1013.70 1013.20 1012.36 1011.59 1011.78 1012.10 1011.45 1011.29 1011.47 1012.23 1013.27 1013.26 1013.42 1013.28 1013.23 1013.36 1013.70 1013.49 1012.64 1012.16 1011.52
Wind_Speed
12 7 8 6 6 6 7 8 9 10 10 11 13 14 14 14 13 2 4 4 6 7 1 2 3 4 1 2 1 2 2 3 4 4 1 4 1 2 3 0 1 4 4 4 10
11 12 8 9 8 8 7 8 9 9 11 12 12 12 12 14 2 5 4 8 8 6 3 5 4 4 1 3 1 4 4 7 2 1 1 4 2 2 2 3 4 4 4 8 11
12 6 10 9 10 9 9 9 8 9 10 12 13 15 15 10 3 3 6 9 8 5 2 2 3 5 2 3 3 4 6 2 1 2 1 3 6 3 3 7 10 8 7 5 5
16 15 13 13 12 10 9 9 9 10 10 11 12 15 17 1 2 2 6 5 5 1 2 2 2 5 3 5 5 3 7 5 3 1 1 2 5 7 6 11 5 7 6 11 9
16 15 14 14 14 15 10 9 9 9 9 11 14 14 5 1 6 4 6 5 3 3 4 3 3 3 3 4 5 5 5 5 5 5 5 3 7 7 14 13 11 8 6 12 10
15 14 14 13 13 14 14 12 9 8 7 9 12 13 1 3 3 7 6 4 3 3 4 4 2 3 4 3 5 2 3 8 6 7 4 4 4 2 9 7 9 10 9 9 11
12 11 12 13 14 14 13 13 11 8 7 8 10 4 4 9 2 6 5 2 2 2 3 4 3 1 3 4 2 2 5 7 6 5 3 2 7 11 15 4 6 7 6 8 10
10 11 12 13 13 14 15 14 12 8 6 7 7 2 7 2 2 4 3 1 2 3 1 2 5 0 2 2 3 2 2 4 3 6 2 1 9 5 7 8 9 9 7 7 9
10 11 13 13 13 13 14 17 16 10 3 4 2 2 8 2 2 4 6 4 3 1 2 1 3 3 0 2 4 3 2 4 4 5 2 5 8 7 3 5 9 9 9 8 8
8 11 13 15 15 15 18 14 9 2 3 4 4 2 3 3 3 4 2 6 3 4 2 2 2 2 1 4 6 5 3 2 6 3 6 5 18 15 14 14 18 12 10 9 10
9 12 13 16 17 15 9 3 1 1 3 8 4 4 5 2 3 2 3 3 3 2 5 4 4 9 12 10 4 3 3 4 5 2 4 8 15 18 15 11 11 10 9 12 12
10 12 13 15 18 17 4 3 2 0 5 9 10 7 3 5 3 5 5 6 6 6 4 2 9 8 9 6 7 5 4 5 5 2 4 5 18 22 18 14 9 8 4 8 7
7 11 14 17 18 6 0 3 4 2 3 5 6 6 6 6 6 11 10 5 5 5 7 7 5 5 9 5 5 4 6 4 7 4 4 7 10 7 6 3 2 2 2 4 9
7 11 15 21 1 4 3 5 2 0 3 5 6 5 6 7 7 6 11 6 7 11 5 8 9 1 4 4 6 4 4 6 3 4 4 3 9 8 9 9 5 6 4 4 7
7 11 14 16 3 2 2 4 3 2 3 4 5 1 6 7 5 2 3 1 8 8 8 8 3 6 4 4 8 6 2 4 3 2 3 3 4 12 6 9 5 8 7 6 7
8 10 12 6 4 2 5 4 1 4 11 4 4 5 6 2 2 2 4 2 1 2 2 5 2 1 5 3 1 7 4 5 4 2 2 6 7 9 5 5 2 2 5 7 7
9 11 9 1 2 5 5 2 4 5 4 3 4 5 4 6 4 3 5 5 7 6 6 2 3 1 2 6 6 2 6 2 5 3 7 1 4 14 5 7 7 9 9 8 7
11 13 4 3 4 5 3 2 5 5 4 4 4 6 6 6 5 6 8 7 7 1 4 8 5 10 6 7 8 7 8 7 8 5 4 3 8 11 7 1 1 6 8 7 7
11 3 3 3 4 1 2 5 8 5 2 5 6 2 2 4 6 5 8 5 8 10 7 7 5 1 4 1 7 6 6 5 4 2 4 6 8 11 2 2 2 6 7 8 8
2 2 2 7 3 1 1 8 3 2 3 4 6 4 7 6 6 8 9 7 7 14 7 3 3 1 0 0 1 3 2 3 3 2 5 5 5 7 6 6 7 8 9 8 8
3 4 2 6 3 2 4 5 4 3 4 2 1 2 2 3 6 4 5 5 9 7 16 3 2 2 2 6 8 3 3 4 3 5 5 1 7 6 3 1 7 9 9 8 9
2 4 5 3 4 2 1 2 6 5 5 3 1 1 1 1 2 3 4 3 10 0 7 2 2 4 8 3 1 1 6 6 6 5 4 3 8 5 4 5 4 6 7 8 7
3 2 5 4 2 2 6 2 2 4 5 6 2 5 2 1 1 2 2 6 13 3 5 5 4 3 2 4 2 5 6 5 2 3 7 5 6 2 2 6 6 5 5 7 8
4 3 6 4 1 2 2 3 2 6 3 4 3 3 3 3 3 1 1 3 8 7 10 3 4 5 7 3 4 5 6 12 12 5 3 13 3 4 9 10 9 6 4 3 5
4 2 3 2 5 3 3 7 3 3 5 8 4 6 3 2 2 1 5 4 1 2 2 1 3 3 10 1 1 5 6 9 18 17 9 5 7 6 14 14 14 12 7 1 4
4 3 3 1 4 4 8 8 8 4 4 5 5 8 4 1 4 3 6 3 3 3 2 1 3 2 5 8 7 11 8 7 11 12 14 14 17 12 11 13 19 19 17 17 11
3 2 4 7 4 5 2 4 7 7 3 2 3 3 5 2 4 8 7 8 4 4 3 3 2 1 4 3 6 6 13 16 6 9 6 10 7 17 12 13 16 19 17 18 20
Wind_Direction
279 267 288 297 305 316 328 334 339 344 344 344 344 346 341 338 326 147 230 204 160 145 111 266 203 243 283 238 100 63 56 247 259 347 34 284 83 344 139 199 281 201 153 181 131
260 276 270 289 293 301 303 319 330 333 337 341 342 341 338 341 298 226 187 122 131 138 156 185 177 196 122 197 211 120 150 227 229 168 239 301 354 270 174 249 251 241 66 143 142
46 290 277 269 286 292 296 303 313 322 329 335 338 337 338 338 290 223 144 142 143 164 216 255 251 166 189 143 199 201 206 238 229 163 79 310 318 274 229 260 226 197 203 198 158
44 38 22 23 355 303 295 293 300 312 324 330 336 334 327 109 241 103 147 138 134 201 293 229 208 154 193 197 212 225 246 253 264 160 17 295 319 304 230 239 229 197 176 170 185
31 28 26 18 8 359 316 300 297 298 317 328 337 335 351 117 251 165 151 148 147 157 225 206 170 176 187 215 155 205 260 291 302 217 223 232 247 251 263 260 260 268 198 174 185
35 19 16 13 5 -0 356 340 295 298 308 318 330 333 281 252 133 150 167 141 255 194 230 217 173 254 289 258 164 205 269 274 270 252 244 239 260 49 269 260 241 237 221 201 190
30 15 14 9 -0 353 341 335 329 307 298 312 326 324 306 241 152 150 152 196 242 224 263 221 94 66 350 288 319 305 310 298 242 205 230 46 286 224 245 221 237 236 240 218 217
20 17 16 3 358 344 335 327 314 301 287 306 318 300 247 313 341 139 195 51 307 295 303 57 75 66 249 267 281 240 159 335 4 114 235 147 269 284 284 194 248 244 245 236 212
15 12 354 353 347 335 326 314 300 282 246 283 298 204 268 347 136 215 172 171 162 96 345 337 86 183 357 161 356 264 231 215 298 201 128 199 269 262 289 240 262 252 241 225 213
354 350 342 341 337 336 324 303 275 235 219 211 269 283 248 220 155 140 196 160 156 132 75 179 124 151 254 132 208 193 207 295 255 228 211 229 264 269 267 265 262 257 234 219 206
345 339 336 329 326 329 336 0 80 252 237 203 186 268 131 77 50 200 175 147 127 164 169 228 140 203 201 205 209 122 176 230 275 219 249 238 275 281 279 272 271 250 232 224 200
340 331 333 328 322 316 283 213 90 17 294 239 244 243 174 175 132 208 167 152 171 191 156 90 237 217 211 209 216 247 240 266 278 173 235 274 285 287 283 269 244 249 248 236 154
345 341 336 329 314 302 272 73 318 37 237 264 207 197 188 156 206 191 155 178 186 180 185 171 238 200 200 190 174 189 190 205 218 321 279 308 295 321 303 274 213 128 102 35 161
351 348 345 335 78 323 102 324 313 210 278 226 217 232 136 150 234 162 182 165 200 193 198 223 250 309 157 186 148 212 214 196 169 56 246 50 286 298 283 288 234 223 184 142 110
351 350 349 349 300 324 355 329 295 167 261 152 141 304 154 177 126 115 152 135 179 195 138 233 202 161 170 206 164 224 103 121 134 168 6 313 75 272 300 296 272 218 205 195 151
347 345 348 344 348 279 348 309 183 120 234 155 120 159 128 224 71 87 118 35 177 224 81 181 163 141 169 61 83 146 75 42 45 91 4 235 150 283 244 228 243 187 188 187 165
339 333 333 271 259 324 331 234 126 199 295 213 188 157 193 160 124 145 150 176 166 144 192 142 197 132 145 89 7 99 88 336 351 358 223 172 104 243 253 259 214 200 195 190 171
333 325 278 217 282 349 334 80 189 233 186 118 110 143 186 136 170 169 148 197 266 227 136 159 278 164 190 188 176 183 162 170 204 203 255 45 226 250 231 276 228 180 159 170 168
338 330 355 316 202 72 235 215 201 201 193 131 120 115 263 157 138 143 180 204 204 192 192 168 241 120 87 80 146 197 203 184 110 42 62 231 277 300 148 170 112 146 157 183 182
8 13 45 327 19 19 172 221 237 298 67 24 195 149 186 203 159 170 181 215 213 194 211 224 126 5 335 108 72 148 193 105 356 197 251 272 267 238 252 242 210 203 198 193 190
40 50 310 317 70 8 160 227 303 270 92 25 120 313 329 202 177 196 170 287 193 198 193 197 55 323 87 212 170 165 218 234 147 165 190 260 259 225 258 251 225 216 203 193 191
71 56 291 9 62 305 261 256 333 337 8 126 110 170 4 2 234 183 224 315 339 309 168 100 78 191 210 269 207 280 209 179 149 220 224 163 268 355 357 9 344 233 206 196 181
89 217 318 69 125 238 303 286 309 328 25 25 353 358 101 55 327 216 323 358 346 29 77 143 189 132 281 342 352 220 203 225 117 72 213 155 258 292 10 4 325 317 298 202 185
75 52 330 38 18 334 348 234 224 30 54 5 12 11 356 185 201 268 313 18 358 28 50 182 193 216 191 171 133 194 219 208 205 194 167 231 296 264 33 13 334 321 347 138 179
42 272 186 331 330 4 357 356 165 44 353 22 75 32 353 346 318 78 21 340 105 54 71 121 238 264 257 215 276 208 225 217 214 219 198 276 222 264 29 21 4 6 354 129 192
90 67 353 304 327 50 19 21 19 45 62 346 59 324 309 59 40 10 1 337 21 317 126 175 233 200 265 221 205 256 263 233 236 244 264 274 277 35 23 9 14 7 5 355 321
333 345 91 354 11 65 345 13 32 346 40 117 234 25 59 11 285 243 236 276 280 334 337 221 237 178 262 313 135 256 239 226 201 64 342 253 337 348 5 357 18 1 3 6 5